[[{"header":{"parameterUnit":"m.s-1","parameterCategory":1,"la1":30.2992,"la2":30.254,"lo1":-89.0895,"lo2":-89.0443,"dy":0.0025,"dx":0.0025,"nx":19,"ny":19,"refTime":"2026-04-12T03:00:00:Z","depth":0,"parameterNumber":2,"parameterNumberName":"U-component_of_WINDS"},"data":[0,0,0,-3.2907,-3.2908,-3.2935,-3.2935,-3.2989,-3.299,0,0,0,0,0,0,0,0,0,0,0,-3.2911,-3.2912,-3.2907,-3.2908,-3.2935,-3.2935,-3.2989,-3.299,0,0,0,0,0,0,0,0,0,0,0,-3.291,-3.2911,-3.2912,-3.2908,-3.2935,-3.2935,-3.2989,-3.2962,0,0,0,0,0,0,0,0,0,0,-3.2932,-3.2947,-3.2911,-3.2912,-3.2908,-3.2935,-3.2935,-3.296,-3.2963,-3.2985,0,-3.3008,0,-3.3,-3.2995,-3.2995,0,0,0,-3.2899,-3.2944,-3.2941,-3.2913,-3.2909,-3.2935,-3.292,-3.2962,-3.2965,-3.299,-3.3009,-3.301,-3.3001,-3.2995,-3.2996,-3.3152,-3.3153,0,0,-3.2898,-3.2922,-3.2938,-3.2944,-3.2941,-3.292,-3.2921,-3.2964,-3.2986,-3.3009,-3.3011,-3.3002,-3.2996,-3.2996,-3.3151,-3.3152,0,0,0,-3.2899,-3.2922,-3.2917,-3.2942,-3.2946,-3.2921,-3.2923,-3.2984,-3.298,-3.3012,-3.3003,-3.2996,-3.2997,-3.315,-3.3152,-3.3232,0,0,0,-3.2898,-3.2922,-3.2916,-3.2932,-3.2945,-3.2965,-3.2942,-3.2977,-3.2981,-3.3002,-3.2996,-3.2998,-3.3148,-3.3151,-3.3227,-3.3266,0,0,0,-3.2905,-3.2923,-3.2931,-3.2933,-3.2946,-3.2964,-3.2962,-3.2978,-3.2976,-3.2995,-3.2998,-3.3148,-3.315,-3.3223,-3.3259,-3.3314,0,0,0,-3.292,-3.3002,-3.2933,-3.3022,-3.2946,-3.3014,-3.2962,-3.3011,-3.3037,-3.2997,-3.3149,-3.3151,-3.3221,-3.3254,-3.331,-3.3366,-3.3391,0,0,-3.3038,-3.3017,-3.3068,-3.3006,-3.3093,-3.3007,-3.3106,-3.3106,-3.3086,-3.3131,-3.3135,-3.3229,-3.3258,-3.3313,-3.3526,-3.3547,0,0,0,-3.3113,-3.315,-3.3167,-3.3193,-3.3195,-3.3201,-3.3183,-3.3183,-3.3221,-3.3114,-3.3263,-3.328,-3.3311,-3.3337,-3.3354,-3.338,-3.3164,-3.3164,-3.3164,-3.3316,-3.3285,-3.3366,-3.3338,-3.3364,-3.3345,-3.3363,-3.336,-3.3321,-3.3357,-3.337,-3.3503,-3.3534,-3.3547,-3.3574,-3.3397,-3.3398,-3.3398,-3.3398,-3.3486,-3.3532,-3.3479,-3.3538,-3.3505,-3.3554,-3.354,-3.3511,-3.3552,-3.3491,-3.3517,-3.3452,-3.3571,-3.3592,-3.3404,-3.3403,-3.3402,-3.3402,-3.3401,-3.3615,-3.3632,-3.3631,-3.3664,-3.3694,-3.3663,-3.3705,-3.3673,-3.3643,-3.3669,-3.368,-3.3678,-3.3673,-3.3676,-3.3677,-3.3677,-3.3678,-3.3678,-3.3678,-3.375,-3.3745,-3.3785,-3.3794,-3.3806,-3.3818,-3.38,-3.3811,-3.3815,-3.3789,-3.3788,-3.3747,-3.3588,-3.3549,-3.3685,-3.3684,-3.3683,-3.3682,-3.3682,-3.3934,-3.3887,-3.3948,-3.396,-3.3968,-3.4,-3.3958,-3.3983,-3.3988,-3.401,-3.3962,-3.385,-3.3827,-3.3813,-3.378,-3.3968,-3.3968,-3.3968,-3.3968,-3.4044,-3.4029,-3.4083,-3.4105,-3.4122,-3.4091,-3.4161,-3.4147,-3.4126,-3.4127,-3.4095,-3.4049,-3.4036,-3.4021,-3.4002,-3.3971,-3.4204,-3.4204,-3.4204,-3.4155,-3.414,-3.4206,-3.4184,-3.4188,-3.4192,-3.4256,-3.4283,-3.4249,-3.4213,-3.4127,-3.4117,-3.4042,-3.402,-3.3982,-3.3953,-3.3896,0,0]},{"header":{"parameterUnit":"m.s-1","parameterCategory":1,"la1":30.2992,"la2":30.254,"lo1":-89.0895,"lo2":-89.0443,"dy":0.0025,"dx":0.0025,"nx":19,"ny":19,"refTime":"2026-04-12T03:00:00:Z","depth":0,"parameterNumber":3,"parameterNumberName":"V-component_of_WINDS"},"data":[0,0,0,1.4948,1.4947,1.489,1.489,1.4827,1.4827,0,0,0,0,0,0,0,0,0,0,0,1.4973,1.4973,1.4948,1.4947,1.489,1.489,1.4827,1.4827,0,0,0,0,0,0,0,0,0,0,0,1.4973,1.4973,1.4973,1.4947,1.489,1.489,1.4827,1.4866,0,0,0,0,0,0,0,0,0,0,1.4919,1.4951,1.4973,1.4973,1.4946,1.489,1.489,1.4868,1.4864,1.4858,0,1.4857,0,1.4841,1.4823,1.4823,0,0,0,1.494,1.4954,1.4932,1.4973,1.4946,1.4891,1.4914,1.4865,1.4861,1.4852,1.4856,1.4853,1.484,1.4823,1.4823,1.4819,1.4819,0,0,1.4943,1.4967,1.4935,1.493,1.4942,1.4916,1.4912,1.4862,1.4867,1.4856,1.4852,1.4839,1.4823,1.4822,1.4819,1.4819,0,0,0,1.4957,1.4969,1.4947,1.4932,1.4922,1.4914,1.491,1.4869,1.486,1.4851,1.4838,1.4822,1.4822,1.4818,1.4819,1.4859,0,0,0,1.4958,1.4977,1.4949,1.4963,1.4923,1.4895,1.4918,1.4864,1.4857,1.4839,1.4822,1.4821,1.4818,1.4819,1.4857,1.4873,0,0,0,1.4974,1.4979,1.4974,1.4964,1.4941,1.4895,1.4883,1.4862,1.485,1.4823,1.4821,1.4818,1.4819,1.4855,1.487,1.488,0,0,0,1.4996,1.5008,1.4975,1.4983,1.4942,1.4921,1.4884,1.4866,1.4848,1.4822,1.4818,1.4819,1.4855,1.4869,1.4878,1.4892,1.4901,0,0,1.5024,1.5012,1.5015,1.4984,1.4976,1.4928,1.4924,1.4884,1.4858,1.4833,1.4832,1.4858,1.487,1.488,1.4938,1.4945,0,0,0,1.5032,1.5034,1.5027,1.5013,1.4984,1.496,1.4918,1.4903,1.4881,1.4851,1.4863,1.4869,1.4874,1.4879,1.4885,1.4887,1.4823,1.4823,1.4822,1.5105,1.5074,1.5076,1.5039,1.5025,1.4982,1.4967,1.4939,1.491,1.4913,1.4906,1.4946,1.4953,1.4957,1.496,1.491,1.4911,1.4911,1.4911,1.5143,1.5141,1.5104,1.5094,1.506,1.505,1.5009,1.4989,1.4973,1.4948,1.4951,1.4926,1.4966,1.4966,1.4913,1.4913,1.4913,1.4912,1.4912,1.5187,1.5181,1.5164,1.5141,1.5126,1.5086,1.5074,1.5042,1.5012,1.5015,1.5003,1.5003,1.4998,1.5012,1.5012,1.5012,1.5012,1.5012,1.5012,1.524,1.522,1.5215,1.5186,1.5173,1.5152,1.511,1.5095,1.507,1.5048,1.5048,1.5019,1.4976,1.4966,1.5014,1.5014,1.5014,1.5013,1.5013,1.529,1.5274,1.5266,1.5254,1.5218,1.5205,1.5166,1.5139,1.5122,1.5117,1.5087,1.506,1.5045,1.504,1.5032,1.5094,1.5094,1.5094,1.5094,1.5328,1.5318,1.5303,1.5285,1.5263,1.5228,1.5218,1.5185,1.5148,1.5135,1.5121,1.5108,1.5104,1.5091,1.5085,1.5076,1.5148,1.5148,1.5148,1.5357,1.5344,1.5343,1.5309,1.5279,1.5253,1.5243,1.5221,1.5175,1.515,1.5124,1.5122,1.5099,1.5094,1.5067,1.5059,1.5043,0,0]}]]